EW8626 Weather Reports


time (UTC)temp
F
wind
direction
speed
knots
gust
knots
rain 1hr
in
rain 24hr
in
rain mn
in
humidity
%
barometer
mb
20260505041610 67 153 0.0 0.0 0.00 0.00 0.00 58 1001.2
20260505040100 66 154 0.0 7.8 0.00 0.00 0.00 60 1001.6
20260505034555 66 160 0.0 3.5 0.00 0.00 0.00 61 1001.8
20260505033055 66 165 0.0 0.0 0.00 0.00 0.00 62 1001.9
20260505031556 65 163 0.9 5.2 0.00 0.00 0.00 62 1001.8
20260505030054 66 158 0.0 0.0 0.00 0.00 0.00 61 1001.6
20260505024553 66 158 0.0 0.0 0.00 0.00 0.00 60 1001.7
20260505023054 67 158 0.0 1.7 0.00 0.00 0.00 59 1001.4
20260505021553 67 160 0.0 2.6 0.00 0.00 0.00 59 1001.2
20260505020052 68 159 0.0 2.6 0.00 0.00 0.00 57 1000.9
20260505014605 68 155 0.0 3.5 0.00 0.00 0.00 57 1000.5
20260505013052 68 156 0.0 2.6 0.00 0.00 0.00 56 1000.4
20260505011551 69 156 0.0 2.6 0.00 0.00 0.00 55 1000.3
20260505010050 70 168 0.0 3.5 0.00 0.00 0.00 54 1000.3
20260505004549 70 158 0.0 0.0 0.00 0.00 0.00 53 1000.3
20260505003048 71 172 1.7 8.7 0.00 0.00 0.00 52 1000.4
20260505001602 71 160 0.0 0.0 0.00 0.00 0.00 53 1000.4
20260505000103 72 189 0.0 7.0 0.00 0.00 0.00 52 1000.6
20260504234603 72 165 0.0 7.8 0.00 0.00 0.00 53 1000.8
20260504233050 72 172 0.0 4.3 0.00 0.00 0.00 52 1001.1
20260504231541 73 154 1.7 7.8 0.00 0.00 0.00 50 1001.2
20260504230039 73 181 1.7 9.6 0.00 0.00 0.00 48 1001.5
20260504224546 74 243 0.0 8.7 0.00 0.00 0.00 46 1001.6
20260504223043 74 156 3.5 15.6 0.00 0.00 0.00 44 1001.7
20260504221538 75 81 1.7 12.2 0.00 0.00 0.00 42 1001.7
20260504220037 75 166 0.9 10.4 0.00 0.00 0.00 45 1001.8
20260504214534 75 166 2.6 10.4 0.00 0.00 0.00 49 1001.7
20260504213053 74 177 0.9 3.5 0.00 0.00 0.00 54 1001.5
20260504211529 74 174 0.0 0.9 0.00 0.00 0.00 51 1002.2
20260504210028 75 195 0.0 0.9 0.00 0.00 0.00 48 1002.4
20260504204526 75 232 0.0 7.0 0.00 0.00 0.00 47 1002.8
20260504203024 76 151 0.0 4.3 0.00 0.00 0.00 47 1002.9
20260504201526 75 183 0.9 7.0 0.00 0.00 0.00 52 1003.0
20260504200018 74 172 0.0 7.0 0.00 0.00 0.00 51 1003.4
20260504194518 72 137 0.9 4.3 0.00 0.00 0.00 55 1003.5
20260504193014 73 165 0.0 7.0 0.00 0.00 0.00 54 1003.6
20260504191510 72 155 0.0 6.1 0.00 0.00 0.00 59 1003.8
20260504190005 70 262 0.0 0.0 0.00 0.00 0.00 63 1004.1
20260504184504 68 181 0.0 0.0 0.00 0.00 0.00 63 1004.2
20260504183001 67 226 0.0 0.9 0.00 0.00 0.00 63 1004.5
20260504181605 67 152 0.0 0.0 0.00 0.00 0.00 64 1004.5
20260504180059 67 158 0.0 13.0 0.00 0.00 0.00 62 1004.3
20260504174612 67 172 0.0 6.1 0.00 0.00 0.00 62 1004.1
20260504173100 67 288 0.9 13.9 0.00 0.00 0.00 61 1004.1
20260504171558 68 160 0.9 12.2 0.00 0.00 0.00 60 1003.9
20260504110118 54 132 0.0 0.0 0.00 0.00 0.00 70 1005.3
20260504090111 52 160 0.0 0.0 0.00 0.00 0.00 68 1005.9
20260504081542 52 166 0.0 0.0 0.00 0.00 0.00 68 1006.1
20260504050020 53 167 0.0 0.0 0.00 0.00 0.00 63 1008.1
20260504044534 53 167 0.0 0.0 0.00 0.00 0.00 63 1008.2
20260504043020 54 167 0.0 0.0 0.00 0.00 0.00 62 1008.2